Weather History for Sedona, AZ

Change the Weather History Date:

Thursday, June 13, 2013

  Actual Average Record
Temperature  
Mean Temperature 84 °F -  
Max Temperature 96 °F 91 °F 96 °F (2012)
Min Temperature 71 °F 55 °F 59 °F (2011)
Cooling Degree Days 18    
Growing Degree Days 34 (Base 50)    
Moisture  
Dew Point 34 °F    
Average Humidity 17    
Maximum Humidity 23    
Minimum Humidity 11    
Precipitation  
Precipitation 0.00 in - - ()
Sea Level Pressure  
Sea Level Pressure 30.08 in    
Wind  
Wind Speed 9 mph (South)    
Max Wind Speed 21 mph    
Max Gust Speed 28 mph    
Visibility 10 miles    
Events      
Averages and records for this station are not official NWS values.
T = Trace of Precipitation, MM = Missing Value Source: NWS Daily Summary

Daily Weather History Graph

Daily Weather History Graph

Search for Another Location

Airport:

Trip Planner

Search our weather history database for the weather conditions in past years. The results will help you decide how hot, cold, wet, or windy it might be!

Date:

Astronomy

Jun. 13, 2013 Rise Set
Actual Time 5:13 AM MST 7:41 PM MST
Civil Twilight 4:43 AM MST 8:11 PM MST
Nautical Twilight 4:06 AM MST 8:47 PM MST
Astronomical Twilight 3:26 AM MST 9:28 PM MST
Moon 9:44 AM MST (6/13) 11:00 PM MST (6/13)
Length of Visible Light 15h 27m
Length of Day
14h 28m
Waxing Crescent, 22% of the Moon is Illuminated
Jun 13
Waxing Crescent
Jun 16
First Quarter
Jun 23
Full
Jun 29
Last Quarter
Jul 8
New

Hourly Weather History & Observations

Time (MST) Temp. Dew Point Humidity Pressure Visibility Wind Dir Wind Speed Gust Speed Precip Events Conditions
12:15 AM 78.8 °F 30.2 °F 17% 30.10 in 10.0 mi NNE 8.1 mph - N/A   Clear
12:35 AM 78.8 °F 30.2 °F 17% 30.10 in 10.0 mi NE 6.9 mph - N/A   Clear
12:55 AM 78.8 °F 30.2 °F 17% 30.09 in 10.0 mi NNE 8.1 mph - N/A   Clear
1:15 AM 77.0 °F 30.2 °F 18% 30.09 in 10.0 mi NNE 9.2 mph - N/A   Clear
1:35 AM 77.0 °F 30.2 °F 18% 30.09 in 10.0 mi NNE 8.1 mph - N/A   Clear
1:55 AM 77.0 °F 30.2 °F 18% 30.09 in 10.0 mi NNE 8.1 mph - N/A   Clear
2:15 AM 77.0 °F 30.2 °F 18% 30.08 in 10.0 mi NE 9.2 mph - N/A   Clear
2:35 AM 75.2 °F 30.2 °F 19% 30.08 in 10.0 mi NE 9.2 mph - N/A   Clear
2:55 AM 75.2 °F 30.2 °F 19% 30.07 in 10.0 mi NNE 10.4 mph - N/A   Clear
3:15 AM 73.4 °F 32.0 °F 22% 30.06 in 10.0 mi NE 13.8 mph - N/A   Clear
3:35 AM 75.2 °F 30.2 °F 19% 30.06 in 10.0 mi NE 12.7 mph - N/A   Clear
3:55 AM 73.4 °F 30.2 °F 20% 30.06 in 10.0 mi NE 10.4 mph - N/A   Clear
4:15 AM 73.4 °F 32.0 °F 22% 30.06 in 10.0 mi NNE 11.5 mph - N/A   Clear
4:35 AM 73.4 °F 30.2 °F 20% 30.08 in 10.0 mi NE 4.6 mph - N/A   Clear
4:55 AM 71.6 °F 32.0 °F 23% 30.09 in 10.0 mi NNE 6.9 mph - N/A   Clear
5:15 AM 71.6 °F 32.0 °F 23% 30.09 in 10.0 mi ENE 3.5 mph - N/A   Clear
5:35 AM 73.4 °F 32.0 °F 22% 30.10 in 10.0 mi Calm Calm - N/A   Clear
5:55 AM 75.2 °F 32.0 °F 21% 30.12 in 10.0 mi ESE 3.5 mph - N/A   Clear
6:15 AM 75.2 °F 32.0 °F 21% 30.12 in 10.0 mi Calm Calm - N/A   Clear
6:35 AM 75.2 °F 32.0 °F 21% 30.12 in 10.0 mi Calm Calm - N/A   Clear
6:55 AM 78.8 °F 32.0 °F 18% 30.13 in 10.0 mi Calm Calm - N/A   Clear
7:15 AM 80.6 °F 32.0 °F 17% 30.13 in 10.0 mi SSE 5.8 mph - N/A   Clear
7:35 AM 82.4 °F 33.8 °F 17% 30.14 in 10.0 mi SE 6.9 mph 10.4 mph N/A   Clear
7:55 AM 82.4 °F 33.8 °F 17% 30.14 in 10.0 mi SSE 8.1 mph - N/A   Clear
8:15 AM 84.2 °F 35.6 °F 18% 30.14 in 10.0 mi South 10.4 mph - N/A   Clear
8:35 AM 82.4 °F 35.6 °F 19% 30.15 in 10.0 mi SSW 10.4 mph - N/A   Clear
8:55 AM 82.4 °F 35.6 °F 19% 30.15 in 10.0 mi South 5.8 mph - N/A   Clear
9:15 AM 82.4 °F 35.6 °F 19% 30.15 in 10.0 mi SW 6.9 mph - N/A   Clear
9:35 AM 86.0 °F 37.4 °F 18% 30.15 in 10.0 mi SSW 8.1 mph - N/A   Clear
9:55 AM 89.6 °F 37.4 °F 16% 30.15 in 10.0 mi SSE 9.2 mph 16.1 mph N/A   Clear
10:15 AM 89.6 °F 39.2 °F 17% 30.15 in 10.0 mi South 9.2 mph - N/A   Clear
10:35 AM 89.6 °F 39.2 °F 17% 30.15 in 10.0 mi SSE 8.1 mph 18.4 mph N/A   Clear
10:55 AM 91.4 °F 41.0 °F 17% 30.15 in 10.0 mi SSE 8.1 mph - N/A   Clear
11:15 AM 91.4 °F 39.2 °F 16% 30.14 in 10.0 mi South 13.8 mph 18.4 mph N/A   Clear
11:35 AM 95.0 °F 39.2 °F 14% 30.14 in 10.0 mi SE 17.3 mph 23.0 mph N/A   Clear
11:55 AM 95.0 °F 39.2 °F 14% 30.14 in 10.0 mi SW 9.2 mph 17.3 mph N/A   Clear
12:15 PM 91.4 °F 37.4 °F 15% 30.13 in 10.0 mi SSW 8.1 mph 16.1 mph N/A   Clear
12:35 PM 91.4 °F 37.4 °F 15% 30.12 in 10.0 mi South 10.4 mph 20.7 mph N/A   Clear
12:55 PM 95.0 °F 37.4 °F 13% 30.12 in 10.0 mi SSW 13.8 mph 23.0 mph N/A   Clear
1:15 PM 96.8 °F 37.4 °F 13% 30.10 in 10.0 mi SSE 16.1 mph 25.3 mph N/A   Clear
1:35 PM 96.8 °F 37.4 °F 13% 30.09 in 10.0 mi South 17.3 mph 23.0 mph N/A   Clear
1:55 PM 96.8 °F 37.4 °F 13% 30.09 in 10.0 mi SSW 13.8 mph 20.7 mph N/A   Clear
2:15 PM 95.0 °F 35.6 °F 12% 30.08 in 10.0 mi South 10.4 mph 24.2 mph N/A   Clear
2:35 PM 96.8 °F 37.4 °F 13% 30.07 in 10.0 mi SSW 12.7 mph 21.9 mph N/A   Clear
2:55 PM 96.8 °F 37.4 °F 13% 30.07 in 10.0 mi WSW 10.4 mph 19.6 mph N/A   Clear
3:15 PM 95.0 °F 35.6 °F 12% 30.06 in 10.0 mi South 10.4 mph 23.0 mph N/A   Clear
3:35 PM 96.8 °F 35.6 °F 12% 30.05 in 10.0 mi South 20.7 mph 26.5 mph N/A   Clear
3:55 PM 95.0 °F 35.6 °F 12% 30.04 in 10.0 mi SSW 16.1 mph 24.2 mph N/A   Clear
4:15 PM 93.2 °F 35.6 °F 13% 30.03 in 10.0 mi South 13.8 mph 25.3 mph N/A   Clear
4:35 PM 95.0 °F 33.8 °F 12% 30.02 in 10.0 mi SW 13.8 mph 27.6 mph N/A   Clear
4:55 PM 95.0 °F 32.0 °F 11% 30.02 in 10.0 mi SW 10.4 mph 17.3 mph N/A   Clear
5:15 PM 93.2 °F 32.0 °F 11% 30.02 in 10.0 mi West 10.4 mph 24.2 mph N/A   Clear
5:35 PM 95.0 °F 32.0 °F 11% 30.02 in 10.0 mi WNW 15.0 mph 20.7 mph N/A   Clear
5:55 PM 91.4 °F 32.0 °F 12% 30.02 in 10.0 mi WNW 20.7 mph 27.6 mph N/A   Clear
6:15 PM 91.4 °F 32.0 °F 12% 30.02 in 10.0 mi West 17.3 mph 23.0 mph N/A   Clear
6:35 PM 91.4 °F 32.0 °F 12% 30.02 in 10.0 mi West 16.1 mph - N/A   Clear
7:15 PM 87.8 °F 32.0 °F 14% 30.02 in 10.0 mi West 12.7 mph - N/A   Clear
7:35 PM 87.8 °F 32.0 °F 14% 30.02 in 10.0 mi West 9.2 mph - N/A   Clear
7:55 PM 86.0 °F 32.0 °F 14% 30.03 in 10.0 mi West 10.4 mph 20.7 mph N/A   Clear
8:15 PM 86.0 °F 32.0 °F 14% 30.03 in 10.0 mi WSW 6.9 mph - N/A   Clear
8:35 PM 86.0 °F 32.0 °F 14% 30.03 in 10.0 mi SSW 5.8 mph - N/A   Clear
8:55 PM 82.4 °F 32.0 °F 16% 30.04 in 10.0 mi SSW 8.1 mph - N/A   Clear
9:15 PM 82.4 °F 32.0 °F 16% 30.05 in 10.0 mi SW 6.9 mph - N/A   Clear
9:35 PM 82.4 °F 32.0 °F 16% 30.06 in 10.0 mi South 3.5 mph - N/A   Clear
9:55 PM 80.6 °F 33.8 °F 18% 30.06 in 10.0 mi South 6.9 mph - N/A   Clear
10:15 PM 80.6 °F 35.6 °F 20% 30.06 in 10.0 mi South 6.9 mph - N/A   Clear
10:35 PM 80.6 °F 35.6 °F 20% 30.06 in 10.0 mi South 9.2 mph - N/A   Clear
10:55 PM 80.6 °F 35.6 °F 20% 30.06 in 10.0 mi South 8.1 mph - N/A   Clear
11:15 PM 80.6 °F 35.6 °F 20% 30.06 in 10.0 mi South 6.9 mph - N/A   Clear
11:35 PM 78.8 °F 37.4 °F 23% 30.06 in 10.0 mi South 8.1 mph - N/A   Clear
11:55 PM 78.8 °F 37.4 °F 23% 30.06 in 10.0 mi SSE 8.1 mph - N/A   Clear